Volver al catálogo

FENGYUN 1C DEB

ActivoSSO
NORAD 31519·DEBRIS·🇨🇳 China

Lanzado May 10, 1999 desde Taiyuan Satellite Launch Center

Loading…

Próximos Pases (próximas 24 horas)

TLE

ActualizadoSource: Space-Track

Época: Sep 13, 2026, 05:03 UTC

1 31519U 99025BXJ 26256.21078703  .00000484  00000-0  22672-3 0  9991
2 31519  98.5878 251.0906 0052549 163.0441 197.2509 14.23877674686702

Sigue FENGYUN 1C DEB en tiempo real con AllMySat

Download on the App Store